| time (UTC) | temp F | wind direction | speed MPH | gust MPH | rain 1hr in | rain 24hr in | rain mn in | humidity % | barometer mb |
| 20260906231612 | 85 | 258 | 2.0 | 11.0 | 0.00 | 0.00 | 0.00 | 25 | 1015.8 |
| 20260906231555 | 85 | 307 | 0.0 | 9.0 | 0.00 | 0.00 | 0.00 | 25 | 1004.7 |
| 20260906230115 | 85 | 278 | 1.0 | 6.0 | 0.00 | 0.00 | 0.00 | 26 | 1004.5 |
| 20260906230058 | 85 | 275 | 1.0 | 9.0 | 0.00 | 0.00 | 0.00 | 26 | 1015.7 |
| 20260906224607 | 84 | 236 | 2.0 | 14.0 | 0.00 | 0.00 | 0.00 | 26 | 1004.5 |
| 20260906223109 | 85 | 273 | 7.0 | 16.0 | 0.00 | 0.00 | 0.00 | 24 | 1015.7 |
| 20260906223054 | 85 | 301 | 5.0 | 15.0 | 0.00 | 0.00 | 0.00 | 24 | 1004.5 |
| 20260906221600 | 87 | 271 | 6.0 | 13.0 | 0.00 | 0.00 | 0.00 | 22 | 1015.6 |
| 20260906221559 | 87 | 285 | 5.0 | 11.0 | 0.00 | 0.00 | 0.00 | 23 | 1004.4 |
| 20260906220058 | 88 | 277 | 3.0 | 10.0 | 0.00 | 0.00 | 0.00 | 22 | 1015.5 |
| 20260906220053 | 88 | 269 | 2.0 | 9.0 | 0.00 | 0.00 | 0.00 | 22 | 1004.3 |
| 20260906214557 | 89 | 260 | 2.0 | 6.0 | 0.00 | 0.00 | 0.00 | 20 | 1015.5 |
| 20260906214549 | 89 | 271 | 2.0 | 5.0 | 0.00 | 0.00 | 0.00 | 20 | 1004.5 |
| 20260906213104 | 89 | 330 | 4.0 | 10.0 | 0.00 | 0.00 | 0.00 | 20 | 1015.6 |
| 20260906213048 | 89 | 4 | 2.0 | 9.0 | 0.00 | 0.00 | 0.00 | 20 | 1004.6 |
| 20260906211604 | 89 | 341 | 3.0 | 9.0 | 0.00 | 0.00 | 0.00 | 20 | 1015.8 |
| 20260906211550 | 89 | 349 | 1.0 | 8.0 | 0.00 | 0.00 | 0.00 | 20 | 1004.8 |
| 20260906210108 | 90 | 249 | 2.0 | 9.0 | 0.00 | 0.00 | 0.00 | 19 | 1016.0 |
| 20260906210043 | 90 | 255 | 2.0 | 8.0 | 0.00 | 0.00 | 0.00 | 19 | 1005.0 |
| 20260906204608 | 88 | 290 | 2.0 | 11.0 | 0.00 | 0.00 | 0.00 | 20 | 1016.2 |
| 20260906204541 | 88 | 295 | 2.0 | 10.0 | 0.00 | 0.00 | 0.00 | 20 | 1005.0 |
| 20260906203058 | 88 | 279 | 4.0 | 11.0 | 0.00 | 0.00 | 0.00 | 20 | 1016.3 |
| 20260906203041 | 88 | 283 | 3.0 | 10.0 | 0.00 | 0.00 | 0.00 | 21 | 1005.2 |
| 20260906201600 | 88 | 244 | 3.0 | 9.0 | 0.00 | 0.00 | 0.00 | 21 | 1016.6 |
| 20260906201537 | 88 | 280 | 1.0 | 8.0 | 0.00 | 0.00 | 0.00 | 22 | 1005.6 |
| 20260906200104 | 88 | 274 | 2.0 | 8.0 | 0.00 | 0.00 | 0.00 | 21 | 1016.7 |
| 20260906200035 | 88 | 269 | 2.0 | 8.0 | 0.00 | 0.00 | 0.00 | 21 | 1005.8 |
| 20260906194606 | 88 | 271 | 4.0 | 9.0 | 0.00 | 0.00 | 0.00 | 20 | 1016.8 |
| 20260906194533 | 88 | 259 | 2.0 | 8.0 | 0.00 | 0.00 | 0.00 | 20 | 1006.0 |
| 20260906193055 | 88 | 267 | 1.0 | 6.0 | 0.00 | 0.00 | 0.00 | 18 | 1016.9 |
| 20260906193032 | 88 | 262 | 0.0 | 5.0 | 0.00 | 0.00 | 0.00 | 19 | 1006.1 |
| 20260906191605 | 88 | 86 | 2.0 | 8.0 | 0.00 | 0.00 | 0.00 | 20 | 1017.3 |
| 20260906191529 | 88 | 40 | 2.0 | 5.0 | 0.00 | 0.00 | 0.00 | 20 | 1006.4 |
| 20260906190103 | 87 | 259 | 1.0 | 3.0 | 0.00 | 0.00 | 0.00 | 21 | 1017.5 |
| 20260906190026 | 87 | 250 | 1.0 | 3.0 | 0.00 | 0.00 | 0.00 | 22 | 1006.7 |
| 20260906184610 | 87 | 265 | 0.0 | 2.0 | 0.00 | 0.00 | 0.00 | 22 | 1018.0 |
| 20260906184525 | 87 | 269 | 0.0 | 2.0 | 0.00 | 0.00 | 0.00 | 22 | 1007.0 |
| 20260906183105 | 87 | 0 | 0.0 | 4.0 | 0.00 | 0.00 | 0.00 | 20 | 1018.2 |
| 20260906183040 | 87 | 278 | 0.0 | 3.0 | 0.00 | 0.00 | 0.00 | 21 | 1007.3 |
| 20260906181601 | 86 | 263 | 1.0 | 4.0 | 0.00 | 0.00 | 0.00 | 23 | 1018.3 |
| 20260906181518 | 86 | 266 | 0.0 | 4.0 | 0.00 | 0.00 | 0.00 | 23 | 1007.7 |
| 20260906180059 | 89 | 280 | 1.0 | 4.0 | 0.00 | 0.00 | 0.00 | 20 | 1018.3 |
| 20260906180020 | 89 | 283 | 0.0 | 4.0 | 0.00 | 0.00 | 0.00 | 20 | 1007.9 |
| 20260906174602 | 87 | 65 | 0.0 | 4.0 | 0.00 | 0.00 | 0.00 | 23 | 1018.8 |
| 20260906174512 | 87 | 60 | 0.0 | 4.0 | 0.00 | 0.00 | 0.00 | 24 | 1008.2 |
| 20260906173106 | 86 | 46 | 2.0 | 6.0 | 0.00 | 0.00 | 0.00 | 22 | 1019.1 |
| 20260906173012 | 86 | 89 | 2.0 | 5.0 | 0.00 | 0.00 | 0.00 | 22 | 1008.4 |
| 20260906171601 | 84 | 237 | 1.0 | 4.0 | 0.00 | 0.00 | 0.00 | 24 | 1019.2 |
| 20260906171516 | 84 | 121 | 0.0 | 3.0 | 0.00 | 0.00 | 0.00 | 24 | 1008.6 |
| 20260906170003 | 82 | 88 | 2.0 | 4.0 | 0.00 | 0.00 | 0.00 | 24 | 1009.0 |
| 20260906164607 | 81 | 162 | 0.0 | 3.0 | 0.00 | 0.00 | 0.00 | 27 | 1019.5 |
| 20260906164601 | 81 | 147 | 0.0 | 2.0 | 0.00 | 0.00 | 0.00 | 26 | 1009.1 |
| 20260906163101 | 81 | 145 | 1.0 | 4.0 | 0.00 | 0.00 | 0.00 | 27 | 1009.2 |
| 20260906161600 | 80 | 144 | 1.0 | 4.0 | 0.00 | 0.00 | 0.00 | 29 | 1019.4 |
| 20260906161559 | 80 | 142 | 0.0 | 3.0 | 0.00 | 0.00 | 0.00 | 29 | 1009.2 |
| 20260906160101 | 79 | 118 | 2.0 | 5.0 | 0.00 | 0.00 | 0.00 | 29 | 1019.5 |
| 20260906160052 | 79 | 116 | 1.0 | 4.0 | 0.00 | 0.00 | 0.00 | 30 | 1009.3 |
| 20260906154558 | 79 | 172 | 0.0 | 2.0 | 0.00 | 0.00 | 0.00 | 28 | 1019.4 |
| 20260906154549 | 79 | 172 | 0.0 | 2.0 | 0.00 | 0.00 | 0.00 | 29 | 1009.4 |
| 20260906153100 | 76 | 115 | 1.0 | 4.0 | 0.00 | 0.00 | 0.00 | 29 | 1019.5 |
| 20260906153045 | 76 | 111 | 1.0 | 3.0 | 0.00 | 0.00 | 0.00 | 30 | 1009.4 |
| 20260906151605 | 74 | 79 | 2.0 | 8.0 | 0.00 | 0.00 | 0.00 | 34 | 1019.6 |
| 20260906151541 | 74 | 75 | 1.0 | 6.0 | 0.00 | 0.00 | 0.00 | 35 | 1009.6 |
| 20260906150047 | 72 | 61 | 1.0 | 5.0 | 0.00 | 0.00 | 0.00 | 37 | 1009.7 |
| 20260906144619 | 73 | 126 | 2.0 | 9.0 | 0.00 | 0.00 | 0.00 | 36 | 1019.8 |
| 20260906144543 | 73 | 122 | 1.0 | 7.0 | 0.00 | 0.00 | 0.00 | 37 | 1009.8 |
| 20260906143112 | 72 | 160 | 1.0 | 5.0 | 0.00 | 0.00 | 0.00 | 36 | 1020.1 |
| 20260906143037 | 72 | 159 | 0.0 | 5.0 | 0.00 | 0.00 | 0.00 | 37 | 1009.9 |
| 20260906141557 | 71 | 161 | 1.0 | 7.0 | 0.00 | 0.00 | 0.00 | 37 | 1020.0 |
| 20260906141536 | 71 | 159 | 0.0 | 3.0 | 0.00 | 0.00 | 0.00 | 37 | 1010.0 |
| 20260906140036 | 66 | 109 | 1.0 | 3.0 | 0.00 | 0.00 | 0.00 | 45 | 1009.7 |
| 20260906134558 | 65 | 98 | 1.0 | 4.0 | 0.00 | 0.00 | 0.00 | 46 | 1019.6 |
| 20260906134525 | 65 | 158 | 1.0 | 4.0 | 0.00 | 0.00 | 0.00 | 46 | 1009.7 |
| 20260906133107 | 64 | 0 | 0.0 | 1.0 | 0.00 | 0.00 | 0.00 | 45 | 1019.5 |
| 20260906133024 | 64 | 110 | 0.0 | 1.0 | 0.00 | 0.00 | 0.00 | 46 | 1009.5 |
| 20260906131600 | 64 | 156 | 0.0 | 2.0 | 0.00 | 0.00 | 0.00 | 44 | 1019.2 |
| 20260906131523 | 64 | 155 | 0.0 | 2.0 | 0.00 | 0.00 | 0.00 | 45 | 1009.3 |
| 20260906130100 | 64 | 144 | 1.0 | 2.0 | 0.00 | 0.00 | 0.00 | 44 | 1019.2 |
| 20260906130026 | 64 | 142 | 0.0 | 2.0 | 0.00 | 0.00 | 0.00 | 45 | 1009.2 |
| 20260906124605 | 64 | 60 | 2.0 | 5.0 | 0.00 | 0.00 | 0.00 | 45 | 1019.1 |
| 20260906124521 | 64 | 56 | 2.0 | 6.0 | 0.00 | 0.00 | 0.00 | 45 | 1009.1 |
| 20260906123106 | 64 | 169 | 1.0 | 4.0 | 0.00 | 0.00 | 0.00 | 45 | 1018.9 |
| 20260906123030 | 64 | 146 | 1.0 | 2.0 | 0.00 | 0.00 | 0.00 | 45 | 1008.9 |
| 20260906121557 | 64 | 40 | 2.0 | 5.0 | 0.00 | 0.00 | 0.00 | 45 | 1019.1 |
| 20260906121533 | 64 | 34 | 1.0 | 4.0 | 0.00 | 0.00 | 0.00 | 45 | 1009.0 |
| 20260906120113 | 64 | 24 | 2.0 | 5.0 | 0.00 | 0.00 | 0.00 | 44 | 1018.9 |
| 20260906120016 | 64 | 18 | 1.0 | 5.0 | 0.00 | 0.00 | 0.00 | 45 | 1008.9 |
| 20260906114558 | 64 | 159 | 1.0 | 4.0 | 0.00 | 0.00 | 0.00 | 45 | 1018.8 |
| 20260906114522 | 64 | 158 | 1.0 | 3.0 | 0.00 | 0.00 | 0.00 | 46 | 1008.8 |
| 20260906113058 | 63 | 65 | 1.0 | 6.0 | 0.00 | 0.00 | 0.00 | 47 | 1018.9 |
| 20260906113036 | 63 | 63 | 1.0 | 5.0 | 0.00 | 0.00 | 0.00 | 47 | 1008.9 |
| 20260906111557 | 64 | 0 | 1.0 | 5.0 | 0.00 | 0.00 | 0.00 | 47 | 1018.8 |
| 20260906111514 | 64 | 41 | 1.0 | 5.0 | 0.00 | 0.00 | 0.00 | 47 | 1008.8 |
| 20260906110103 | 64 | 43 | 2.0 | 5.0 | 0.00 | 0.00 | 0.00 | 46 | 1018.7 |
| 20260906110012 | 64 | 36 | 1.0 | 4.0 | 0.00 | 0.00 | 0.00 | 47 | 1008.7 |
| 20260906104600 | 63 | 0 | 0.0 | 3.0 | 0.00 | 0.00 | 0.00 | 46 | 1018.6 |
| 20260906104512 | 63 | 56 | 0.0 | 3.0 | 0.00 | 0.00 | 0.00 | 47 | 1008.5 |
| 20260906103100 | 62 | 59 | 1.0 | 2.0 | 0.00 | 0.00 | 0.00 | 49 | 1018.4 |
| 20260906103008 | 62 | 54 | 0.0 | 2.0 | 0.00 | 0.00 | 0.00 | 49 | 1008.3 |
| 20260906101601 | 62 | 58 | 1.0 | 2.0 | 0.00 | 0.00 | 0.00 | 53 | 1018.4 |
| 20260906101507 | 62 | 53 | 0.0 | 2.0 | 0.00 | 0.00 | 0.00 | 53 | 1008.3 |
| 20260906100105 | 62 | 0 | 0.0 | 1.0 | 0.00 | 0.00 | 0.00 | 49 | 1018.4 |
| 20260906100015 | 62 | 53 | 0.0 | 1.0 | 0.00 | 0.00 | 0.00 | 50 | 1008.4 |
| 20260906094556 | 64 | 58 | 1.0 | 2.0 | 0.00 | 0.00 | 0.00 | 48 | 1018.3 |
| 20260906094505 | 64 | 53 | 1.0 | 2.0 | 0.00 | 0.00 | 0.00 | 49 | 1008.1 |
| 20260906093112 | 64 | 49 | 1.0 | 4.0 | 0.00 | 0.00 | 0.00 | 47 | 1018.2 |
| 20260906093003 | 64 | 44 | 1.0 | 4.0 | 0.00 | 0.00 | 0.00 | 48 | 1008.1 |
| 20260906091600 | 63 | 0 | 1.0 | 2.0 | 0.00 | 0.00 | 0.00 | 48 | 1018.3 |
| 20260906091501 | 63 | 46 | 0.0 | 2.0 | 0.00 | 0.00 | 0.00 | 49 | 1008.2 |
| 20260906090124 | 63 | 59 | 0.0 | 4.0 | 0.00 | 0.00 | 0.00 | 49 | 1018.5 |
| 20260906090108 | 63 | 54 | 0.0 | 3.0 | 0.00 | 0.00 | 0.00 | 50 | 1008.3 |
| 20260906084559 | 62 | 46 | 0.0 | 1.0 | 0.00 | 0.00 | 0.00 | 52 | 1008.2 |
| 20260906084557 | 62 | 51 | 0.0 | 1.0 | 0.00 | 0.00 | 0.00 | 52 | 1018.4 |
| 20260906083058 | 63 | 46 | 0.0 | 2.0 | 0.00 | 0.00 | 0.00 | 51 | 1008.1 |
| 20260906083056 | 63 | 0 | 0.0 | 3.0 | 0.00 | 0.00 | 0.00 | 51 | 1018.4 |
| 20260906081602 | 60 | 43 | 1.0 | 2.0 | 0.00 | 0.00 | 0.00 | 59 | 1008.3 |
| 20260906081600 | 60 | 49 | 1.0 | 1.0 | 0.00 | 0.00 | 0.00 | 59 | 1018.6 |
| 20260906080103 | 60 | 0 | 0.0 | 0.0 | 0.00 | 0.00 | 0.00 | 57 | 1018.5 |
| 20260906080053 | 60 | 347 | 0.0 | 0.0 | 0.00 | 0.00 | 0.00 | 57 | 1008.1 |
| 20260906074607 | 62 | 345 | 0.0 | 0.0 | 0.00 | 0.00 | 0.00 | 56 | 1008.0 |
| 20260906074559 | 62 | 0 | 0.0 | 0.0 | 0.00 | 0.00 | 0.00 | 56 | 1018.4 |
| 20260906073055 | 62 | 340 | 1.0 | 1.0 | 0.00 | 0.00 | 0.00 | 54 | 1018.4 |
| 20260906073048 | 62 | 345 | 1.0 | 1.0 | 0.00 | 0.00 | 0.00 | 55 | 1008.0 |
| 20260906071609 | 62 | 340 | 0.0 | 1.0 | 0.00 | 0.00 | 0.00 | 56 | 1018.4 |
| 20260906071546 | 62 | 345 | 0.0 | 1.0 | 0.00 | 0.00 | 0.00 | 56 | 1007.9 |
| 20260906070059 | 62 | 0 | 0.0 | 1.0 | 0.00 | 0.00 | 0.00 | 54 | 1018.6 |
| 20260906070043 | 62 | 347 | 0.0 | 0.0 | 0.00 | 0.00 | 0.00 | 55 | 1008.1 |
| 20260906064601 | 63 | 0 | 0.0 | 1.0 | 0.00 | 0.00 | 0.00 | 51 | 1018.5 |
| 20260906064541 | 63 | 345 | 0.0 | 1.0 | 0.00 | 0.00 | 0.00 | 52 | 1008.0 |
| 20260906063103 | 64 | 0 | 0.0 | 1.0 | 0.00 | 0.00 | 0.00 | 50 | 1018.4 |
| 20260906063039 | 64 | 345 | 0.0 | 1.0 | 0.00 | 0.00 | 0.00 | 50 | 1007.9 |
| 20260906061558 | 64 | 0 | 0.0 | 2.0 | 0.00 | 0.00 | 0.00 | 51 | 1018.2 |
| 20260906061536 | 64 | 345 | 0.0 | 2.0 | 0.00 | 0.00 | 0.00 | 51 | 1007.8 |
| 20260906060059 | 64 | 0 | 0.0 | 1.0 | 0.00 | 0.00 | 0.00 | 50 | 1018.0 |
| 20260906060035 | 64 | 333 | 0.0 | 1.0 | 0.00 | 0.00 | 0.00 | 50 | 1007.7 |
| 20260906054600 | 64 | 327 | 0.0 | 1.0 | 0.00 | 0.00 | 0.00 | 50 | 1018.2 |
| 20260906054536 | 64 | 333 | 0.0 | 1.0 | 0.00 | 0.00 | 0.00 | 50 | 1007.7 |
| 20260906053058 | 65 | 0 | 0.0 | 2.0 | 0.00 | 0.00 | 0.00 | 52 | 1018.1 |
| 20260906053036 | 65 | 328 | 0.0 | 1.0 | 0.00 | 0.00 | 0.00 | 52 | 1007.6 |
| 20260906051557 | 65 | 335 | 0.0 | 1.0 | 0.00 | 0.00 | 0.00 | 54 | 1018.1 |
| 20260906051532 | 65 | 324 | 0.0 | 1.0 | 0.00 | 0.00 | 0.00 | 54 | 1007.6 |
| 20260906050133 | 65 | 0 | 0.0 | 0.0 | 0.00 | 0.00 | 0.00 | 54 | 1018.1 |
| 20260906050043 | 65 | 277 | 0.0 | 0.0 | 0.00 | 0.00 | 0.00 | 55 | 1007.6 |
| 20260906044600 | 65 | 0 | 0.0 | 0.0 | 0.00 | 0.00 | 0.00 | 53 | 1018.1 |
| 20260906044536 | 65 | 277 | 0.0 | 0.0 | 0.00 | 0.00 | 0.00 | 53 | 1007.5 |
| 20260906043110 | 66 | 0 | 0.0 | 0.0 | 0.00 | 0.00 | 0.00 | 51 | 1018.0 |
| 20260906043032 | 66 | 276 | 0.0 | 0.0 | 0.00 | 0.00 | 0.00 | 52 | 1007.3 |
| 20260906041602 | 67 | 0 | 0.0 | 0.0 | 0.00 | 0.00 | 0.00 | 48 | 1017.9 |
| 20260906041534 | 67 | 277 | 0.0 | 0.0 | 0.00 | 0.00 | 0.00 | 49 | 1007.1 |
| 20260906040114 | 68 | 0 | 0.0 | 0.0 | 0.00 | 0.00 | 0.00 | 46 | 1017.8 |
| 20260906040030 | 68 | 277 | 0.0 | 0.0 | 0.00 | 0.00 | 0.00 | 46 | 1006.9 |
| 20260906034601 | 69 | 0 | 0.0 | 0.0 | 0.00 | 0.00 | 0.00 | 44 | 1017.5 |
| 20260906034530 | 69 | 277 | 0.0 | 0.0 | 0.00 | 0.00 | 0.00 | 44 | 1006.8 |
| 20260906033054 | 70 | 0 | 0.0 | 0.0 | 0.00 | 0.00 | 0.00 | 41 | 1017.5 |
| 20260906033040 | 70 | 276 | 0.0 | 0.0 | 0.00 | 0.00 | 0.00 | 41 | 1006.6 |
| 20260906031630 | 71 | 0 | 0.0 | 0.0 | 0.00 | 0.00 | 0.00 | 37 | 1017.4 |
| 20260906031531 | 71 | 275 | 0.0 | 0.0 | 0.00 | 0.00 | 0.00 | 38 | 1006.3 |
| 20260906030136 | 72 | 0 | 0.0 | 0.0 | 0.00 | 0.00 | 0.00 | 36 | 1017.0 |
| 20260906030029 | 72 | 275 | 0.0 | 0.0 | 0.00 | 0.00 | 0.00 | 37 | 1006.0 |
| 20260906024619 | 74 | 0 | 0.0 | 0.0 | 0.00 | 0.00 | 0.00 | 39 | 1016.9 |
| 20260906024528 | 74 | 275 | 0.0 | 0.0 | 0.00 | 0.00 | 0.00 | 40 | 1005.9 |
| 20260906023126 | 76 | 0 | 0.0 | 1.0 | 0.00 | 0.00 | 0.00 | 35 | 1016.8 |
| 20260906023028 | 76 | 276 | 0.0 | 0.0 | 0.00 | 0.00 | 0.00 | 35 | 1005.6 |
| 20260906021611 | 77 | 0 | 0.0 | 0.0 | 0.00 | 0.00 | 0.00 | 34 | 1016.6 |
| 20260906021526 | 77 | 276 | 0.0 | 0.0 | 0.00 | 0.00 | 0.00 | 34 | 1005.3 |
| 20260906020107 | 80 | 0 | 0.0 | 0.0 | 0.00 | 0.00 | 0.00 | 32 | 1016.3 |
| 20260906020027 | 80 | 276 | 0.0 | 0.0 | 0.00 | 0.00 | 0.00 | 33 | 1005.1 |
| 20260906014559 | 82 | 0 | 0.0 | 0.0 | 0.00 | 0.00 | 0.00 | 30 | 1016.3 |
| 20260906014531 | 82 | 276 | 0.0 | 0.0 | 0.00 | 0.00 | 0.00 | 31 | 1005.0 |
| 20260906013059 | 85 | 0 | 0.0 | 0.0 | 0.00 | 0.00 | 0.00 | 27 | 1016.2 |
| 20260906013026 | 85 | 275 | 0.0 | 0.0 | 0.00 | 0.00 | 0.00 | 27 | 1005.0 |
| 20260906011605 | 88 | 0 | 0.0 | 3.0 | 0.00 | 0.00 | 0.00 | 24 | 1016.3 |
| 20260906011533 | 88 | 276 | 0.0 | 2.0 | 0.00 | 0.00 | 0.00 | 24 | 1005.0 |
| 20260906010101 | 90 | 248 | 1.0 | 4.0 | 0.00 | 0.00 | 0.00 | 23 | 1016.4 |
| 20260906010025 | 90 | 246 | 1.0 | 4.0 | 0.00 | 0.00 | 0.00 | 23 | 1005.1 |
| 20260906004558 | 90 | 254 | 2.0 | 6.0 | 0.00 | 0.00 | 0.00 | 22 | 1016.4 |
| 20260906004524 | 90 | 257 | 1.0 | 5.0 | 0.00 | 0.00 | 0.00 | 22 | 1005.1 |
| 20260906003109 | 90 | 259 | 2.0 | 8.0 | 0.00 | 0.00 | 0.00 | 22 | 1016.5 |
| 20260906003024 | 90 | 258 | 1.0 | 6.0 | 0.00 | 0.00 | 0.00 | 22 | 1005.1 |
| 20260906001602 | 91 | 300 | 4.0 | 9.0 | 0.00 | 0.00 | 0.00 | 21 | 1016.5 |
| 20260906001523 | 91 | 306 | 4.0 | 8.0 | 0.00 | 0.00 | 0.00 | 22 | 1005.2 |
| 20260906000056 | 91 | 259 | 3.0 | 8.0 | 0.00 | 0.00 | 0.00 | 22 | 1016.3 |
| 20260906000022 | 91 | 264 | 2.0 | 7.0 | 0.00 | 0.00 | 0.00 | 22 | 1005.1 |
| 20260905234615 | 90 | 268 | 3.0 | 11.0 | 0.00 | 0.00 | 0.00 | 22 | 1016.3 |
| 20260905234522 | 90 | 276 | 3.0 | 9.0 | 0.00 | 0.00 | 0.00 | 22 | 1005.1 |
| 20260905233056 | 92 | 277 | 3.0 | 9.0 | 0.00 | 0.00 | 0.00 | 21 | 1016.3 |
| 20260905233020 | 92 | 287 | 3.0 | 7.0 | 0.00 | 0.00 | 0.00 | 22 | 1005.1 |